カタログに戻る

ONEWEB-0695

運用中通信PO
NORAD 61602·PAYLOAD·🇬🇧 United Kingdom

打ち上げ Oct 20, 2024 から Vandenberg Space Force Base

Loading…

次のパス (今後24時間)

TLE

最新Source: CelesTrak SupGP

元期: Sep 14, 2026, 22:32 UTC

1 61602C 24188J   26257.93906667 -.00001734  00000+0 -48989-2 0  2579
2 61602  87.8958   3.2296 0001284 107.4184 354.5345 13.11414618    14

AllMySatでONEWEB-0695をリアルタイム追跡

Download on the App Store